Cambridge Niab, United Kingdom

11:27 AM GMT on February 24, 2017 (GMT +0000)
Cambridge

Weather History for EGSC - October, 2013

Change the Weather History Date:

Sunday, October 6, 2013

  Actual Average Record
Temperature  
Mean Temperature 57 °F -  
Max Temperature 66 °F 54 °F 68 °F (1997)
Min Temperature 48 °F 45 °F 33 °F (1999)
Degree Days  
Heating Degree Days 8    
Growing Degree Days 7 (Base 50)    
Moisture  
Dew Point 50 °F    
Average Humidity 72    
Maximum Humidity 100    
Minimum Humidity 56    
Precipitation  
Precipitation 0.00 in - - ()
Sea Level Pressure  
Sea Level Pressure 30.26 in    
Wind  
Wind Speed 5 mph ()    
Max Wind Speed 9 mph    
Max Gust Speed -    
Visibility 6.2 miles    
Events      
Averages and records for this station are not official NWS values.
T = Trace of Precipitation, MM = Missing Value Source: Averaged Metar Reports

Daily Weather History Graph

Daily Weather History Graph

Search for Another Location

Airport or City:

Trip Planner

Search our weather history database for the weather conditions in past years. The results will help you decide how hot, cold, wet, or windy it might be!

Date:

Astronomy

Oct. 06, 2013 Rise Set
Actual Time 7:08 AM BST 6:24 PM BST
Civil Twilight 6:34 AM BST 6:58 PM BST
Nautical Twilight 5:55 AM BST 7:37 PM BST
Astronomical Twilight 5:15 AM BST 8:17 PM BST
Moon 8:52 AM BST (10/6) 6:55 PM BST (10/6)
Length of Visible Light 12h 23m
Length of Day
11h 16m
New Moon, 2% of the Moon is Illuminated
Oct 6
New Moon
Oct 12
First Quarter
Oct 19
Full
Oct 27
Last Quarter
Nov 3
New

Hourly Weather History & Observations

Time (BST) Temp. Dew Point Humidity Pressure Visibility Wind Dir Wind Speed Gust Speed Precip Events Conditions
7:20 AM 48.2 °F 46.4 °F 93% 30.27 in 6.2 mi SSW 4.6 mph - N/A   Scattered Clouds
7:50 AM 48.2 °F 48.2 °F 100% 30.27 in 6.2 mi SW 5.8 mph - N/A   Scattered Clouds
8:20 AM 50.0 °F 48.2 °F 94% 30.27 in 6.2 mi SW 4.6 mph - N/A   Scattered Clouds
8:50 AM 51.8 °F 50.0 °F 94% 30.27 in 6.2 mi Variable 3.5 mph - N/A   Scattered Clouds
9:20 AM 51.8 °F 50.0 °F 94% 30.27 in 6.2 mi Variable 3.5 mph - N/A   Scattered Clouds
9:50 AM 53.6 °F 50.0 °F 88% 30.27 in 6.2 mi SW 4.6 mph - N/A   Scattered Clouds
10:20 AM 55.4 °F 51.8 °F 88% 30.27 in 6.2 mi SW 4.6 mph - N/A   Partly Cloudy
10:50 AM 59.0 °F 53.6 °F 82% 30.27 in 6.2 mi SSW 5.8 mph - N/A   Partly Cloudy
11:20 AM 60.8 °F 51.8 °F 72% 30.27 in 6.2 mi SW 4.6 mph - N/A   Partly Cloudy
11:50 AM 64.4 °F 50.0 °F 59% 30.27 in 6.2 mi WSW 5.8 mph - N/A   Partly Cloudy
12:20 PM 66.2 °F 50.0 °F 56% 30.27 in 6.2 mi SW 6.9 mph - N/A   Partly Cloudy
12:50 PM 66.2 °F 50.0 °F 56% 30.27 in 6.2 mi SW 8.1 mph - N/A   Partly Cloudy
1:20 PM 64.4 °F 50.0 °F 59% 30.27 in 6.2 mi SW 8.1 mph - N/A   Partly Cloudy
1:50 PM 66.2 °F 50.0 °F 56% 30.27 in 6.2 mi WSW 8.1 mph - N/A   Partly Cloudy
2:20 PM 66.2 °F 50.0 °F 56% 30.27 in 6.2 mi WSW 9.2 mph - N/A   Partly Cloudy
2:50 PM 64.4 °F 50.0 °F 59% 30.27 in 6.2 mi WSW 8.1 mph - N/A   Scattered Clouds
3:20 PM 64.4 °F 50.0 °F 59% 30.27 in 6.2 mi SW 6.9 mph - N/A   Scattered Clouds
3:50 PM 66.2 °F 50.0 °F 56% 30.24 in 6.2 mi SW 6.9 mph - N/A   Partly Cloudy
4:20 PM 66.2 °F 50.0 °F 56% 30.24 in 6.2 mi SW 8.1 mph - N/A   Partly Cloudy
4:50 PM 66.2 °F 50.0 °F 56% 30.24 in 6.2 mi WSW 8.1 mph - N/A   Partly Cloudy
5:20 PM 64.4 °F 50.0 °F 59% 30.24 in 6.2 mi SW 5.8 mph - N/A   Partly Cloudy
5:50 PM 62.6 °F 50.0 °F 63% 30.24 in - SW 5.8 mph - N/A   Clear
6:20 PM 60.8 °F 50.0 °F 68% 30.24 in - SW 4.6 mph - N/A   Clear
6:50 PM 59.0 °F 48.2 °F 67% 30.24 in - South 2.3 mph - N/A   Clear
7:20 PM 57.2 °F 50.0 °F 77% 30.27 in - South 2.3 mph - N/A   Clear
7:50 PM 55.4 °F 50.0 °F 82% 30.27 in - Variable 2.3 mph - N/A   Clear
8:50 PM 53.6 °F 50.0 °F 88% 30.27 in - SSW 3.5 mph - N/A   Clear